• En Estados Unidos
  • Lista de países
  • Para 7 días
  • Temperatura del agua
  • Mapa Satelital
  • El tiempo en el mapa
  • Informadores
  • user-avatar
    Iniciar sesión

    Tiempo cada hora Sidi Bu-l-Abbas

    Hoy, 16 Noviembre, Viernes

    Tiempo Temperatura Precipitaciones Viento Presión Humedad
    00:00 +14°C° 0 mm 0 mps 720 mmHg 83%
    01:00 +14°C° 0 mm 0 mps 720 mmHg 83%
    02:00 +15°C° 0 mm 1 mps 719 mmHg 83%
    03:00 +14°C° 0 mm 1 mps 719 mmHg 83%
    04:00 +14°C° 0 mm 1 mps 719 mmHg 83%
    05:00 +14°C° 0 mm 1 mps 719 mmHg 83%
    06:00 +14°C° 0 mm 1 mps 719 mmHg 82%
    07:00 +15°C° 0 mm 1 mps 720 mmHg 76%
    08:00 +16°C° 0 mm 1 mps 720 mmHg 69%
    09:00 +18°C° 0 mm 2 mps 720 mmHg 62%
    10:00 +19°C° 0 mm 2 mps 720 mmHg 57%
    11:00 +20°C° 0 mm 2 mps 720 mmHg 51%
    12:00 +21°C° 0 mm 2 mps 720 mmHg 46%
    13:00 +21°C° 0 mm 2 mps 719 mmHg 44%
    14:00 +21°C° 0 mm 2 mps 719 mmHg 42%
    15:00 +22°C° 0 mm 3 mps 718 mmHg 40%
    16:00 +21°C° 0 mm 3 mps 718 mmHg 45%
    17:00 +20°C° 0 mm 3 mps 718 mmHg 49%
    18:00 +19°C° 0 mm 3 mps 718 mmHg 53%
    19:00 +18°C° 0 mm 3 mps 718 mmHg 56%
    20:00 +18°C° 0 mm 2 mps 718 mmHg 58%
    21:00 +17°C° 0 mm 2 mps 718 mmHg 60%
    22:00 +17°C° 0 mm 2 mps 718 mmHg 61%
    23:00 +17°C° 0 mm 2 mps 718 mmHg 62%

    Mañana, 17 Noviembre, Sábado

    Tiempo Temperatura Precipitaciones Viento Presión Humedad
    00:00 +16°C° 0 mm 1 mps 718 mmHg 63%
    01:00 +16°C° 0 mm 1 mps 718 mmHg 64%
    02:00 +16°C° 0 mm 1 mps 717 mmHg 65%
    03:00 +16°C° 0 mm 1 mps 717 mmHg 66%
    04:00 +15°C° 0 mm 1 mps 717 mmHg 69%
    05:00 +15°C° 0 mm 1 mps 717 mmHg 72%
    06:00 +14°C° 0 mm 1 mps 717 mmHg 75%
    07:00 +15°C° 0 mm 1 mps 717 mmHg 71%
    08:00 +16°C° 0 mm 1 mps 718 mmHg 67%
    09:00 +18°C° 0 mm 1 mps 718 mmHg 63%
    10:00 +18°C° 0 mm 2 mps 718 mmHg 60%
    11:00 +19°C° 0 mm 2 mps 718 mmHg 57%
    12:00 +20°C° 0 mm 2 mps 718 mmHg 54%
    13:00 +20°C° 0 mm 3 mps 718 mmHg 55%
    14:00 +19°C° 0 mm 3 mps 717 mmHg 56%
    15:00 +19°C° 0 mm 3 mps 717 mmHg 57%
    16:00 +19°C° 0 mm 3 mps 717 mmHg 63%
    17:00 +18°C° 0 mm 2 mps 717 mmHg 68%
    18:00 +17°C° 0 mm 2 mps 716 mmHg 74%
    19:00 +17°C° 0 mm 2 mps 716 mmHg 76%
    20:00 +16°C° 0 mm 2 mps 716 mmHg 77%
    21:00 +16°C° 0 mm 1 mps 716 mmHg 79%
    22:00 +16°C° 0 mm 2 mps 716 mmHg 78%
    23:00 +16°C° 0 mm 2 mps 715 mmHg 78%

    Pasado mañana, 18 Noviembre, Domingo

    Tiempo Temperatura Precipitaciones Viento Presión Humedad
    00:00 +16°C° 0 mm 2 mps 715 mmHg 77%
    01:00 +15°C° 0 mm 2 mps 715 mmHg 75%
    02:00 +15°C° 0 mm 2 mps 714 mmHg 72%
    03:00 +14°C° 0 mm 3 mps 714 mmHg 70%
    04:00 +14°C° 0 mm 3 mps 713 mmHg 66%
    05:00 +16°C° 0 mm 3 mps 713 mmHg 62%
    06:00 +16°C° 0 mm 3 mps 713 mmHg 58%
    07:00 +17°C° 0 mm 3 mps 713 mmHg 53%
    08:00 +18°C° 0 mm 3 mps 713 mmHg 48%
    09:00 +19°C° 0 mm 3 mps 714 mmHg 43%
    10:00 +19°C° 0 mm 4 mps 713 mmHg 41%
    11:00 +20°C° 0 mm 4 mps 713 mmHg 38%
    12:00 +21°C° 0 mm 5 mps 712 mmHg 35%
    13:00 +21°C° 0 mm 5 mps 712 mmHg 36%
    14:00 +21°C° 0 mm 5 mps 712 mmHg 36%
    15:00 +21°C° 0 mm 4 mps 711 mmHg 36%
    16:00 +20°C° 0 mm 3 mps 711 mmHg 42%
    17:00 +19°C° 0 mm 2 mps 711 mmHg 47%
    18:00 +18°C° 0 mm 2 mps 711 mmHg 52%
    19:00 +19°C° 0.2 mm 1 mps 711 mmHg 56%
    20:00 +18°C° 0.2 mm 1 mps 711 mmHg 61%
    21:00 +18°C° 0.2 mm 1 mps 711 mmHg 65%
    22:00 +16°C° 0.7 mm 2 mps 711 mmHg 68%
    23:00 +16°C° 0.7 mm 2 mps 711 mmHg 71%

    19 Noviembre, Lunes

    Tiempo Temperatura Precipitaciones Viento Presión Humedad
    00:00 +15°C° 0.7 mm 2 mps 710 mmHg 74%
    01:00 +14°C° 1 mm 3 mps 710 mmHg 74%
    02:00 +13°C° 1 mm 3 mps 710 mmHg 75%
    03:00 +13°C° 1 mm 3 mps 709 mmHg 76%
    04:00 +13°C° 0.4 mm 3 mps 709 mmHg 76%
    05:00 +12°C° 0.4 mm 3 mps 709 mmHg 76%
    06:00 +12°C° 0.4 mm 3 mps 709 mmHg 76%
    07:00 +13°C° 0.1 mm 3 mps 709 mmHg 72%
    08:00 +13°C° 0.1 mm 4 mps 709 mmHg 67%
    09:00 +13°C° 0.1 mm 5 mps 710 mmHg 62%
    10:00 +14°C° 0.3 mm 5 mps 710 mmHg 61%
    11:00 +14°C° 0.3 mm 6 mps 710 mmHg 60%
    12:00 +14°C° 0.3 mm 7 mps 710 mmHg 60%
    13:00 +13°C° 0.2 mm 8 mps 710 mmHg 59%
    14:00 +13°C° 0.2 mm 8 mps 710 mmHg 59%
    15:00 +15°C° 0.2 mm 9 mps 709 mmHg 59%
    16:00 +13°C° 0.1 mm 8 mps 710 mmHg 62%
    17:00 +13°C° 0.1 mm 8 mps 710 mmHg 65%
    18:00 +12°C° 0.1 mm 8 mps 710 mmHg 68%
    19:00 +12°C° 0.2 mm 8 mps 711 mmHg 68%
    20:00 +12°C° 0.2 mm 9 mps 711 mmHg 69%
    21:00 +12°C° 0.2 mm 9 mps 711 mmHg 69%
    22:00 +11°C° 0.4 mm 10 mps 712 mmHg 71%
    23:00 +11°C° 0.4 mm 10 mps 712 mmHg 72%

    20 Noviembre, Martes

    Tiempo Temperatura Precipitaciones Viento Presión Humedad
    00:00 +11°C° 0.4 mm 10 mps 712 mmHg 73%
    01:00 +11°C° 0.5 mm 10 mps 712 mmHg 75%
    02:00 +11°C° 0.5 mm 10 mps 713 mmHg 76%
    03:00 +11°C° 0.5 mm 10 mps 713 mmHg 78%
    04:00 +11°C° 0.6 mm 10 mps 713 mmHg 79%
    05:00 +10°C° 0.6 mm 9 mps 714 mmHg 79%
    06:00 +10°C° 0.6 mm 8 mps 714 mmHg 80%
    07:00 +11°C° 0.1 mm 8 mps 715 mmHg 76%
    08:00 +12°C° 0.1 mm 8 mps 715 mmHg 72%
    09:00 +12°C° 0.1 mm 7 mps 716 mmHg 68%
    10:00 +14°C° 0 mm 7 mps 716 mmHg 62%
    11:00 +15°C° 0 mm 8 mps 716 mmHg 56%
    12:00 +16°C° 0 mm 8 mps 716 mmHg 50%
    13:00 +16°C° 0 mm 8 mps 716 mmHg 50%
    14:00 +16°C° 0 mm 8 mps 716 mmHg 49%
    15:00 +16°C° 0 mm 7 mps 716 mmHg 49%
    16:00 +15°C° 0 mm 6 mps 716 mmHg 55%
    17:00 +14°C° 0 mm 5 mps 716 mmHg 61%
    18:00 +13°C° 0 mm 3 mps 716 mmHg 67%
    19:00 +13°C° 0 mm 3 mps 717 mmHg 69%
    20:00 +13°C° 0 mm 3 mps 717 mmHg 71%
    21:00 +13°C° 0 mm 3 mps 717 mmHg 72%
    22:00 +12°C° 0 mm 3 mps 717 mmHg 72%
    23:00 +12°C° 0 mm 3 mps 717 mmHg 71%

    21 Noviembre, Miércoles

    Tiempo Temperatura Precipitaciones Viento Presión Humedad
    00:00 +12°C° 0 mm 3 mps 717 mmHg 71%
    01:00 +12°C° 0 mm 3 mps 717 mmHg 70%
    02:00 +12°C° 0 mm 3 mps 717 mmHg 70%
    03:00 +12°C° 0 mm 3 mps 717 mmHg 70%
    04:00 +12°C° 0 mm 3 mps 717 mmHg 70%
    05:00 +12°C° 0 mm 3 mps 718 mmHg 70%
    06:00 +12°C° 0 mm 3 mps 718 mmHg 70%
    07:00 +13°C° 0 mm 4 mps 718 mmHg 66%
    08:00 +14°C° 0 mm 4 mps 719 mmHg 61%
    09:00 +15°C° 0 mm 5 mps 719 mmHg 57%
    10:00 +16°C° 0 mm 5 mps 719 mmHg 53%
    11:00 +17°C° 0 mm 6 mps 719 mmHg 49%
    12:00 +19°C° 0 mm 6 mps 718 mmHg 45%
    13:00 +19°C° 0 mm 6 mps 718 mmHg 45%
    14:00 +19°C° 0 mm 5 mps 718 mmHg 45%
    15:00 +19°C° 0 mm 5 mps 718 mmHg 45%
    16:00 +18°C° 0 mm 4 mps 718 mmHg 52%
    17:00 +16°C° 0 mm 2 mps 718 mmHg 59%
    18:00 +15°C° 0 mm 1 mps 718 mmHg 66%
    19:00 +15°C° 0 mm 1 mps 718 mmHg 67%
    20:00 +14°C° 0 mm 1 mps 718 mmHg 69%
    21:00 +14°C° 0 mm 1 mps 718 mmHg 71%
    22:00 +14°C° 0 mm 1 mps 718 mmHg 70%
    23:00 +14°C° 0 mm 1 mps 718 mmHg 69%
    Mostrar más